Regional Weather Roundup
Issued by NWS

Home | Current Version | Previous Version | Graphics & Text | Print | Product List | Glossary On
Versions: 1 2 3 4 5 6 7 8 9 10 11 12 13 14 15 16 17 18 19 20 21 22 23 24 25 26 27 28 29 30 31 32 33 34 35 36 37 38 39 40 41 42 43 44 45 46 47 48 49 50
000
ASUS43 KLMK 011010
RWRKY
KENTUCKY REGIONAL WEATHER ROUNDUP
NATIONAL WEATHER SERVICE LOUISVILLE KY
500 AM EST SUN FEB 01 2015

NOTE "FAIR" INDICATES FEW OR NO CLOUDS BELOW 12,000 FEET
WITH NO SIGNIFICANT WEATHER AND/OR OBSTRUCTIONS TO VISIBILITY.

KYZ001>023-026-027-061>063-070>075-011100-
WESTERN AND SOUTH CENTRAL KENTUCKY

CITY           SKY/WX    TMP DP  RH WIND       PRES   REMARKS
PADUCAH        CLOUDY    46  21  37 S12       29.93F
HENDERSON      CLOUDY    37  25  60 SE6       29.98F WCI  33
OWENSBORO      CLOUDY    42  23  47 S14       30.00F
HOPKINSVILLE   CLOUDY    44  21  40 SE7       30.00F
BOWLING GREEN  CLOUDY    41  18  39 SE6       30.06F
GLASGOW        CLOUDY    39  22  50 SE5       30.07F
$$

KYZ024-025-028>034-038-045-046-053-011100-
NORTH CENTRAL KENTUCKY

CITY           SKY/WX    TMP DP  RH WIND       PRES   REMARKS
LOUISVILLE/SDF CLOUDY    41  19  41 SW9G23    30.09R
LOUISVILLE/LOU CLOUDY    43  17  35 S8        30.06F
FORT KNOX      CLOUDY    39  19  44 W3        30.06F
$$

KYZ035>037-039>044-047>052-055>060-089>105-011100-
NORTHEAST KENTUCKY

CITY           SKY/WX    TMP DP  RH WIND       PRES   REMARKS
LEXINGTON      CLOUDY    37  17  44 S10       30.13F WCI  30
COVINGTON      CLOUDY    35  25  66 SE3       30.11F
FRANKFORT      CLOUDY    35  23  61 SE8       30.10F WCI  29
$$

KYZ054-064>069-076>088-106>120-011100-
SOUTHEAST KENTUCKY

CITY           SKY/WX    TMP DP  RH WIND       PRES   REMARKS
JACKSON        CLOUDY    35  13  40 CALM      30.17R
LONDON         CLOUDY    37  20  50 CALM      30.15F
SOMERSET       CLOUDY    34  19  55 E6        30.13F WCI  29
MIDDLESBORO    CLOUDY    36  24  62 CALM      30.19S
MONTICELLO     CLOUDY    43  12  28 SE13      30.13F
$$



USA.gov is the U.S. government's official web portal to all federal, state and local government web resources and services.